Volver al catálogo

TRANSIT 5B-1 DEB

ActivoPO
NORAD 3166·DEBRIS·🇺🇸 United States

Lanzado Sep 28, 1963 desde Vandenberg Space Force Base

Loading…

Próximos Pases (próximas 24 horas)

TLE

ActualizadoSource: Space-Track

Época: Sep 14, 2026, 11:37 UTC

1 03166U 63038H   26257.48469979  .00000069  00000-0  99984-4 0  9992
2 03166  89.9673 332.6904 0043327 118.9173 255.9916 13.44984217603599

Sigue TRANSIT 5B-1 DEB en tiempo real con AllMySat

Download on the App Store